Location: Baili�vre
(50.0696°N, 4.2409°E)
Time: 04:44:26
(UTC+00:00)

Intercosmos 25 - Pass Details

Date: 08 August 2020
Orbit: 439 x 2877 km, 82.6° (Epoch: 19 September)

Event Time Altitude Azimuth Distance (km) Brightness Sun altitude
Rises 19:49:10 0° 351° (N) 3,619 8.2 -5.8°
Reaches altitude 10° 19:52:10 10° 355° (N) 2,348 7.1 -6.2°
Maximum altitude 19:56:59 58° 75° (ENE) 680 3.6 -6.8°
Drops below altitude 10° 20:00:23 10° 155° (SSE) 1,662 5.2 -7.3°
Enters shadow 20:01:03 - 157° (SSE) 1,950 5.6 -7.4°
